2022/12/23 00:00:00,25.5,-5.4
2022/12/23 00:10:00,26.3,-5.3
2022/12/23 00:20:00,26.5,-5.5
2022/12/23 00:30:00,26.9,-5.5
2022/12/23 00:40:00,27.7,-5.9
2022/12/23 00:50:00,28.2,-6.0
2022/12/23 01:00:00,28.4,-6.1
2022/12/23 01:10:00,29.0,-6.8
2022/12/23 01:20:00,29.7,-6.3
2022/12/23 01:30:00,30.7,-6.2
2022/12/23 01:40:00,31.6,-6.1
2022/12/23 01:50:00,32.7,-6.0
2022/12/23 02:00:00,34.3,-6.1
2022/12/23 02:10:00,205.2,-6.1
2022/12/23 02:20:00,205.6,-6.0
2022/12/23 02:30:00,206.1,-5.9
2022/12/23 02:40:00,206.3,-6.0
2022/12/23 02:50:00,206.0,-5.9
2022/12/23 03:00:00,205.8,-5.6
2022/12/23 03:10:00,206.1,-6.0
2022/12/23 03:20:00,206.2,-6.0
2022/12/23 03:30:00,206.1,-5.9
2022/12/23 03:40:00,206.2,-5.8
2022/12/23 03:50:00,206.2,-6.2
2022/12/23 04:00:00,205.9,-5.9
2022/12/23 04:10:00,206.1,-6.0
2022/12/23 04:20:00,206.2,-6.0
2022/12/23 04:30:00,206.3,-6.1
2022/12/23 04:40:00,206.2,-6.2
2022/12/23 04:50:00,206.1,-6.1
2022/12/23 05:00:00,206.2,-6.0
2022/12/23 05:10:00,206.3,-6.1
2022/12/23 05:20:00,206.3,-6.1
2022/12/23 05:30:00,206.3,-6.1
2022/12/23 05:40:00,206.3,-6.2
2022/12/23 05:50:00,206.3,-6.1
2022/12/23 06:00:00,206.3,-6.4
2022/12/23 06:10:00,206.3,-6.0
2022/12/23 06:20:00,206.3,-6.0
2022/12/23 06:30:00,206.3,-5.9
2022/12/23 06:40:00,206.3,-6.1
2022/12/23 06:50:00,206.3,-6.0
2022/12/23 07:00:00,206.3,-6.0
2022/12/23 07:10:00,206.3,-5.7
2022/12/23 07:20:00,206.3,-6.0
2022/12/23 07:30:00,206.3,-6.0
2022/12/23 07:40:00,206.3,-5.9
2022/12/23 07:50:00,206.3,-5.7
2022/12/23 08:00:00,206.3,-6.3
2022/12/23 08:10:00,206.3,-6.0
2022/12/23 08:20:00,206.3,-6.0
2022/12/23 08:30:00,206.3,-5.8
2022/12/23 08:40:00,206.3,-6.0
2022/12/23 08:50:00,206.3,-5.7
2022/12/23 09:00:00,206.3,-5.6
2022/12/23 09:10:00,206.3,-4.9
2022/12/23 09:20:00,206.3,-4.8
2022/12/23 09:30:00,206.3,-5.3
2022/12/23 09:40:00,206.3,-5.1
2022/12/23 09:50:00,206.3,-4.8
2022/12/23 10:00:00,206.3,-4.9
2022/12/23 10:10:00,206.3,-4.8
2022/12/23 10:20:00,206.3,-5.5
2022/12/23 10:30:00,206.3,-5.1
2022/12/23 10:40:00,206.3,-4.7
2022/12/23 10:50:00,206.3,-4.3
2022/12/23 11:00:00,206.3,-4.2
2022/12/23 11:10:00,206.3,-4.0
2022/12/23 11:20:00,206.3,-4.5
2022/12/23 11:30:00,206.3,-4.3
2022/12/23 11:40:00,206.3,-4.5
2022/12/23 11:50:00,206.3,-4.6
2022/12/23 12:00:00,206.3,-4.3
2022/12/23 12:10:00,206.3,-2.7
2022/12/23 12:20:00,206.3,-3.1
2022/12/23 12:30:00,206.3,-4.3
2022/12/23 12:40:00,206.3,-4.9
2022/12/23 12:50:00,206.3,-5.0
2022/12/23 13:00:00,206.3,-5.1
2022/12/23 13:10:00,206.3,-5.0
2022/12/23 13:20:00,206.3,-4.6
2022/12/23 13:30:00,206.3,-4.0
2022/12/23 13:40:00,206.3,-4.5
2022/12/23 13:50:00,206.3,-4.8
2022/12/23 14:00:00,206.3,-4.8
2022/12/23 14:10:00,206.3,-4.9
2022/12/23 14:20:00,206.3,-4.9
2022/12/23 14:30:00,206.3,-5.0
2022/12/23 14:40:00,206.3,-5.2
2022/12/23 14:50:00,206.3,-4.9
2022/12/23 15:00:00,206.3,-5.0
2022/12/23 15:10:00,206.3,-5.1
2022/12/23 15:20:00,206.3,-5.0
2022/12/23 15:30:00,206.3,-5.2
2022/12/23 15:40:00,206.3,-5.2
2022/12/23 15:50:00,206.3,-5.2
2022/12/23 16:00:00,206.3,-5.3
2022/12/23 16:10:00,206.3,-5.3
2022/12/23 16:20:00,206.3,-5.2
2022/12/23 16:30:00,206.3,-5.2
2022/12/23 16:40:00,206.3,-5.6
2022/12/23 16:50:00,206.3,-5.2
2022/12/23 17:00:00,206.3,-5.3
2022/12/23 17:10:00,206.3,-5.5
2022/12/23 17:20:00,206.3,-5.2
2022/12/23 17:30:00,206.3,-5.3
2022/12/23 17:40:00,206.3,-5.1
2022/12/23 17:50:00,206.3,-4.5
2022/12/23 18:00:00,206.3,-5.2
2022/12/23 18:10:00,206.3,-4.9
2022/12/23 18:20:00,206.3,-4.9
2022/12/23 18:30:00,206.3,-5.1
2022/12/23 18:40:00,206.3,-4.8
2022/12/23 18:50:00,206.3,-4.6
2022/12/23 19:00:00,206.3,-5.0
2022/12/23 19:10:00,206.3,-4.9
2022/12/23 19:20:00,206.3,-4.8
2022/12/23 19:30:00,206.3,-4.8
2022/12/23 19:40:00,206.3,-4.8
2022/12/23 19:50:00,206.3,-4.7
2022/12/23 20:00:00,206.3,-4.6
2022/12/23 20:10:00,206.3,-4.7
2022/12/23 20:20:00,206.3,-4.6
2022/12/23 20:30:00,206.3,-4.4
2022/12/23 20:40:00,206.3,-4.4
2022/12/23 20:50:00,206.3,-4.4
2022/12/23 21:00:00,206.3,-3.6
2022/12/23 21:10:00,206.3,-4.0
2022/12/23 21:20:00,206.3,-4.2
2022/12/23 21:30:00,206.3,-4.2
2022/12/23 21:40:00,206.3,-4.3
2022/12/23 21:50:00,206.3,-3.7
2022/12/23 22:00:00,206.3,-4.1
2022/12/23 22:10:00,206.3,-4.1
2022/12/23 22:20:00,206.3,-4.1
2022/12/23 22:30:00,206.3,-4.1
2022/12/23 22:40:00,206.3,-4.2
2022/12/23 22:50:00,206.3,-4.3
2022/12/23 23:00:00,206.3,-4.0
2022/12/23 23:10:00,206.3,-3.8
2022/12/23 23:20:00,206.3,-4.0
2022/12/23 23:30:00,206.3,-4.0
2022/12/23 23:40:00,206.3,-3.9
2022/12/23 23:50:00,206.3,-3.9
